Location: *
(58.7167°N, 26.1833°E)
Time: 16:03:56
(UTC+00:00)

Cosmos 1666 - Pass Details

Date: 25 August 2019
Orbit: 497 x 523 km, 82.5° (Epoch: 18 September)

Event Time Altitude Azimuth Distance (km) Brightness Sun altitude
Exits shadow 19:40:44 - 197° (SSW) 1,942 5.3 -13.8°
Reaches altitude 10° 19:41:12 10° 198° (SSW) 1,747 5.1 -13.8°
Maximum altitude 19:45:02 76° 284° (WNW) 537 2.8 -14.1°
Drops below altitude 10° 19:48:52 10° 11° (N) 1,746 6.0 -14.4°
Sets 19:51:00 0° 13° (NNE) 2,632 6.9 -14.6°
